User: anonymous   Login
Location: Newark
(43.0000°N, 1.6781°W)
Time: 01:35:28
(UTC+00:00)
Language:

Vanguard 1 Rocket - Orbit

View from above orbital plane
View from above orbital plane
View from above satellite
View from above satellite

Ground track
Ground track

The orbit data is extracted from the following two-line orbital elements,

1 00016U 58002A   21110.32614425  .00000190  00000-0  29089-3 0  9995
2 00016  34.2663 348.7367 2024934  91.5564 291.6311 10.48711471491051
Epoch (UTC): 20 April 2021 07:49:38
Eccentricity: 0.2024934
inclination: 34.2663°
perigee height: 653 km
apogee height: 4223 km
right ascension of ascending node: 348.7367°
argument of perigee: 91.5564°
revolutions per day: 10.48711471
mean anomaly at epoch: 291.6311°
orbit number at epoch: 49105

The dashed part of the orbit path shows where the satellite is in the earth's shadow,  

DLR